Home   Weather   Mexico City   Past weeks

Flag for Mexico Past Weather in Mexico City, Ciudad de México, Mexico — Yesterday and Last 2 Weeks

Now
48 °F

Clear.


Feels Like: 47 °F
Forecast: 46 / 75 °F
Wind: 3 mph from East

Location: Mexico City / Licenci

Current Time: Jan 24, 2017 at 5:15:33 am

Latest Report: Jan 24, 2017 at 3:43 am


Visibility: 10 mi

Pressure: 30.28 "Hg (23.08 "Hg at 2241m altitude)

Humidity: 46%

Dew Point: 28 °F

Location of Mexico CityLocation

Past Weather in Mexico City — Graph

°F

Mexico City Temperature Yesterday

Maximum temperature yesterday: 75 °F (at 3:43 pm)
Minimum temperature yesterday: 43 °F (at 6:45 am)
Average temperature yesterday: 59 °F

High & Low Weather Summary for the Past Weeks

 TemperatureHumidityPressure
High75 °F (Jan 21, 1:38 pm)93% (Jan 9, 4:01 am)30.55 "Hg (Jan 9, 4:01 am)
Low39 °F (Jan 9, 3:15 am)7% (Jan 23, 3:43 pm)29.57 "Hg (Jan 21, 2:51 pm)
Average59 °F41%30.20 "Hg
* Reported Jan 9 3:15 am — Jan 24 3:43 am, Mexico City, Weather by CustomWeather, © 2017

Note: Actual official high and low records may vary slightly from our data, if they occured in-between our weather recording intervals... More about our weather records

Advertising

Mexico City Weather History for the Previous 24 Hours

Scroll right to see more
 ConditionsComfort  
Time TempWeatherWind HumidityBarometerVisibility
3:43 am
Tue, Jan 24
48 °FClear.3 mph46%30.28 "Hg10 mi
2:41 am50 °FClear.5 mph43%29.80 "Hg8 mi
1:52 am52 °FClear.6 mph38%30.29 "Hg8 mi
12:46 am57 °FClear.5 mph29%30.30 "Hg8 mi
11:42 pm
Mon, Jan 23
59 °FClear.6 mph31%29.82 "Hg8 mi
10:45 pm61 °FClear.6 mph29%30.31 "Hg8 mi
9:41 pm64 °FClear.7 mph22%30.30 "Hg8 mi
8:47 pm66 °FClear.9 mph24%29.89 "Hg8 mi
7:46 pm66 °FClear.3 mph22%30.26 "Hg8 mi
7:21 pm68 °FClear.15 mph21%30.24 "Hg8 mi
5:43 pm73 °FSunny.8 mph9%29.77 "Hg7 mi
4:42 pm75 °FSunny.3 mph8%30.20 "Hg7 mi
3:43 pm75 °FSunny.6 mph7%30.21 "Hg7 mi
2:49 pm73 °FSunny.6 mph9%29.73 "Hg7 mi
1:46 pm72 °FSunny.7 mph10%30.27 "Hg7 mi
1:25 pm72 °FSunny.5 mph11%30.28 "Hg8 mi
12:42 pm68 °FSunny.6 mph14%30.31 "Hg8 mi
11:44 am66 °FSunny.5 mph17%29.88 "Hg8 mi
11:14 am64 °FSunny.5 mph21%30.37 "Hg10 mi
10:40 am61 °FSunny.3 mph23%30.38 "Hg12 mi
10:25 am59 °FSunny.6 mph27%30.38 "Hg12 mi
9:40 am55 °FSunny.6 mph28%30.38 "Hg12 mi
9:04 am52 °FSunny.6 mph35%30.38 "Hg12 mi
8:41 am48 °FSunny.6 mph29%29.97 "Hg12 mi
8:18 am46 °FSunny.6 mph43%30.36 "Hg12 mi
7:41 am43 °FSunny.7 mph49%30.34 "Hg12 mi
6:45 am43 °FClear.5 mph53%30.32 "Hg10 mi
5:50 am45 °FClear.5 mph46%29.93 "Hg12 mi
Weather by CustomWeather, © 2017

See weather overviewHow to use our weather pages